Location: Ch?enovice
(49.7164°N, 15.2160°E)
Time: 17:57:19
(UTC+00:00)

Cosmos 2242 Rocket - Pass Details

Date: 23 May 2024
Orbit: 617 x 647 km, 82.5° (Epoch: 13 June)

Event Time Altitude Azimuth Distance (km) Brightness Sun altitude
Exits shadow 00:53:27 16° 165° (SSE) 1,640 5.3 -15.0°
Maximum altitude 00:56:48 51° 94° (E) 801 4.3 -14.7°
Drops below altitude 10° 01:01:09 10° 19° (NNE) 2,031 7.6 -14.4°
Sets 01:03:27 0° 15° (NNE) 2,949 8.6 -14.2°
